Flag for Austria Weather past 2 weeks in Fürstenfeld, Styria, Austria

Now
36 °F

Fog.


Feels Like: 36 °F
Forecast: 32 / 49 °F
Wind: 1 mph from West

Location: Murska Sobota

Current Time: Feb 28, 2015 at 8:09:09 AM

Latest Report: Feb 28, 2015 at 7:00 AM


Visibility: 5 mi

Pressure: 30.09 "Hg

Humidity: 93%

Dew point: 34 °F

Location of FürstenfeldLocation

Historic Weather in Fürstenfeld — Graph

°F

Fürstenfeld temperature yesterday

Maximum temperature yesterday: 49 °F (at 1:00 PM)
Minimum temperature yesterday: 28 °F (at 7:00 AM)
Average temperature yesterday: 37 °F

Past Weeks' High & Low Weather Summary

 TemperatureHumidityPressure
High52 °F (Feb 21, 2:00 PM)98% (Feb 24, 4:00 AM)30.79 "Hg (Feb 24, 4:00 AM)
Low22 °F (Feb 20, 7:00 AM)44% (Feb 20, 4:00 PM)29.66 "Hg (Feb 23, 4:00 PM)
Average38 °F79%30.11 "Hg
* Reported Feb 13 6:00 AM — Feb 28 6:00 AM, Fürstenfeld, Weather by CustomWeather, © 2015

Note: Actual official high and low records may vary slightly from our data, if they occured in-between our weather recording intervals... More about our weather records

Advertising

Fürstenfeld weather history for previous 24 hours

 ConditionsComfort  
Time TempWeatherWind HumidityBarometerVisibility
6:00 AM
Sat, Feb 28
36 °FChilly.No wind92%30.08 "HgN/A
5:00 AM36 °FChilly.1 mph92%30.06 "HgN/A
4:00 AM35 °FChilly.1 mph94%30.06 "HgN/A
3:00 AM35 °FChilly.1 mph93%30.06 "HgN/A
2:00 AM34 °FChilly.1 mph93%30.05 "HgN/A
1:00 AM32 °FChilly.1 mph96%30.05 "HgN/A
12:00 AM31 °FChilly.1 mph95%30.04 "HgN/A
11:00 PM
Fri, Feb 27
31 °FChilly.1 mph93%30.03 "HgN/A
10:00 PM32 °FChilly.1 mph92%30.02 "HgN/A
9:00 PM35 °FChilly.No wind87%30.00 "HgN/A
8:00 PM37 °FChilly.1 mph82%29.98 "HgN/A
7:00 PM40 °FFog.2 mph77%29.97 "Hg4 mi
6:00 PM42 °FQuite cool.2 mph74%29.95 "HgN/A
5:00 PM44 °FQuite cool.2 mph70%29.93 "HgN/A
4:00 PM45 °FCool.3 mph67%29.92 "HgN/A
3:00 PM46 °FCool.3 mph65%29.91 "HgN/A
2:00 PM47 °FPartly sunny.3 mph65%29.91 "Hg6 mi
1:00 PM49 °FScattered clouds.3 mph63%29.92 "Hg6 mi
12:00 PM48 °FCool.1 mph64%29.94 "HgN/A
11:00 AM44 °FQuite cool.1 mph76%29.96 "HgN/A
10:00 AM40 °FChilly.2 mph82%29.98 "HgN/A
9:00 AM35 °FChilly.1 mph88%29.98 "HgN/A
8:00 AM31 °FFog.1 mph96%30.00 "Hg5 mi
Weather by CustomWeather, © 2015

See weather overviewHow to use our weather pages